OKEAN-0
1 25860U 99039A 10356.70050888 .00000139 00000-0 28734-4 0 01849
2 25860 097.8593 323.2723 0001123 111.5564 248.5764 14.73695310614664
NOAA-16
1 26536U 00055A 10357.41779547 .00000085 00000-0 71259-4 0 1210
2 26536 099.1588 019.2399 0010818 162.7932 197.3631 14.12590216528540
NOAA-17
1 27453U 02032A 10357.40446163 .00000009 00000-0 22109-4 0 1137
2 27453 098.4058 039.9741 0010916 306.9141 053.1036 14.24220584441639
NOAA-18
1 28654U 05018A 10357.43856697 -.00000183 00000-0 -75942-4 0 6007
2 28654 098.9755 303.3688 0013558 238.7355 121.2502 14.11418332288139
NOAA-19
1 33591U 09005A 10357.39711285 .00000238 00000-0 15585-3 0 7928
2 33591 098.8106 295.6734 0014873 112.4459 247.8295 14.11114056 96590
HUBBLE
1 20580U 90037B 10355.61426390 .00000649 00000-0 36697-4 0 6901
2 20580 028.4688 096.1547 0003452 034.7810 325.3095 15.01122689932941
ISS
1 25544U 98067A 10357.88699256 .00020709 00000-0 15829-3 0 5137
2 25544 051.6489 339.5126 0005277 066.0764 017.4680 15.72128206693316
CO-58
1 28895U 05043F 10357.69177789 .00000263 00000-0 64164-4 0 7583
2 28895 097.9906 235.6049 0018774 053.1957 307.1022 14.59984075274639
FALCON
1 30776U 07006E 10356.96344337 .00000916 00000-0 67939-4 0 09994
2 30776 035.4346 337.9102 0001456 350.0105 010.0589 15.04024407208498
MAST
1 31126U 07012K 10357.65459746 .00000115 00000-0 36274-4 0 427
2 31126 097.9144 029.6349 0094870 357.6384 002.4378 14.53656922195581
CAPE1
1 31130U 07012P 10357.54393651 .00000125 00000-0 39362-4 0 626
2 31130 097.9170 026.5807 0102797 007.3489 352.9188 14.52269481195146
COMPASS
1 32787U 08021E 10357.22084852 .00000691 00000-0 93425-4 0 8627
2 32787 097.8720 059.1577 0016431 033.1249 327.0981 14.82088606143497
AAUSAT2
1 32788U 08021F 10356.12476212 .00000492 00000-0 68180-4 0 08530
2 32788 097.8736 058.2518 0016040 038.1485 322.0887 14.82244396143347
DO-64
1 32789U 08021G 10356.85118173 .00000489 00000-0 67432-4 0 08715
2 32789 097.8821 059.6792 0015962 034.2843 325.9375 14.82504825143451
CO-66
1 32791U 08021J 10355.65168626 .00000219 00000-0 34335-4 0 08552
2 32791 097.8745 057.5995 0016808 037.0437 323.1910 14.81835138143213
RS-30
1 32953U 08025A 10357.76197650 .00000010 00000-0 00000 0 0 3257
2 32953 082.5017 271.7905 0020074 049.6696 310.6132 12.43010009117297
TACSAT-3
1 35001U 09028A 10356.92510161 .00005250 00000-0 11605-3 0 04799
2 35001 040.4553 158.6029 0023283 335.5216 024.4493 15.44124914089790
PHARMSAT
1 35002U 09028B 10356.82844030 .00005302 00000-0 11582-3 0 4303
2 35002 040.4690 156.7120 0025668 337.8956 022.0752 15.44404603 89809
HAWKSAT1
1 35003U 09028C 10357.57449773 .00014793 00000-0 25573-3 0 4693
2 35003 040.4586 139.5268 0023543 007.1879 352.9271 15.50279094 90069
CP6
1 35004U 09028D 10357.54283534 .00018726 00000-0 30039-3 0 4718
2 35004 040.4594 136.5733 0022815 012.5750 347.5629 15.52265317 90086
AEROCUB3
1 35005U 09028E 10357.68378788 .00426724 74111-4 13122-2 0 5791
2 35005 040.4582 109.7681 0023306 041.0680 319.1898 15.90445506 90392
METEOR-M
1 35865U 09049A 10357.78573879 .00000176 00000-0 10000-3 0 9492
2 35865 098.7339 049.9728 0002115 159.1896 200.9323 14.21833724 65662
RS-38
1 35869U 09049E 10357.80658153 .00000177 00000-0 10000-3 0 9613
2 35869 098.7319 050.0339 0004560 167.4559 192.6686 14.21996445 65679
